Regional Weather Roundup
Issued by NWS

Home | Current Version | Previous Version | Graphics & Text | Print | Product List | Glossary On
Versions: 1 2 3 4 5 6 7 8 9 10 11 12 13 14 15 16 17 18 19 20 21 22 23 24 25 26 27 28 29 30 31 32 33 34 35 36 37 38 39 40 41 42 43 44 45 46 47 48 49 50
227
ASUS45 KPSR 212110
RWRAZ

ARIZONA HOURLY REGIONAL WEATHER ROUNDUP
NATIONAL WEATHER SERVICE PHOENIX AZ
200 PM MST SAT JAN 21 2017

NOTE: FAIR INDICATES FEW OR NO CLOUDS BELOW 12,000 FEET WITH NO
SIGNIFICANT WEATHER AND/OR OBSTRUCTIONS TO VISIBILITY.

AZZ001>003-036-212200-
NORTHWEST ARIZONA

CITY           SKY/WX    TMP DP  RH WIND       PRES   REMARKS
BULLHEAD CITY  SUNNY     59  32  36 S8        29.80R
KINGMAN        MOSUNNY   47  26  44 MISG      29.79R
$$

AZZ004>008-015-016-018-212200-
NORTH CENTRAL ARIZONA

CITY           SKY/WX    TMP DP  RH WIND       PRES   REMARKS
GRAND CANYON   CLOUDY    32  27  81 W12G21    29.69R WCI  23
WILLIAMS       CLOUDY    30  23  74 W14G22    29.73R WCI  20
PRESCOTT       MOSUNNY   36  31  82 SW21      29.76R WCI  25
FLAGSTAFF      FLURRIES  29  21  72 W12G25    29.70R WCI  19
PAYSON         CLOUDY    36  32  87 W7        29.78R WCI  30
PAGE           CLOUDY    45  22  40 W16G31    29.60R
$$

AZZ009>014-017-212200-
NORTHEAST ARIZONA

CITY           SKY/WX    TMP DP  RH WIND       PRES   REMARKS
WINSLOW        PTSUNNY   44  30  57 W24G36    29.66R
SAINT JOHNS    CLOUDY    37  29  72 W25G37    29.62S WCI  25
SHOW LOW       PTSUNNY   28  25  86 SW25      29.69R WCI  14
$$

AZZ023-212200-
GREATER PHOENIX AREA

CITY           SKY/WX    TMP DP  RH WIND       PRES   REMARKS
PHOENIX        PTSUNNY   56  39  53 SW16      29.82R
BUCKEYE        MOSUNNY   55  32  41 W16G22    29.84R
GLENDALE       PTSUNNY   59  36  41 SW17G23   29.83R
LUKE AFB       MOSUNNY   59  37  43 SW20G26   29.81R
DEER VALLEY    PTSUNNY   55  32  41 W20G26    29.80R
SCOTTSDALE     CLOUDY    57  34  41 SW15G21   29.83R
MESA-FALCON    MOSUNNY  N/A N/A N/A SW23G29   29.78S
MESA-GATEWAY   PTSUNNY   55  36  47 W18       29.83S
CHANDLER       PTSUNNY   57  36  44 W17G30    29.83R
$$

AZZ027-028-212200-
SOUTHWEST MARICOPA COUNTY AND PINAL COUNTY

CITY           SKY/WX    TMP DP  RH WIND       PRES   REMARKS
CASA GRANDE    CLOUDY    56  37  49 W23G30    29.84R
GILA BEND      FAIR      59  38  45 W24G30    29.85R
$$

AZZ503-504-507>509-212200-
SOUTHEAST ARIZONA

CITY           SKY/WX    TMP DP  RH WIND       PRES   REMARKS
TUCSON         PTSUNNY   57  31  37 W21G33    29.87R
DAVIS-MONTHAN  MOSUNNY   53  31  43 W16G30    29.85R
RYAN FIELD     MOSUNNY   55  32  41 W23G32    29.87R
NOGALES        MOSUNNY   50  29  44 W16G32    29.87R
SIERRA VISTA   PTSUNNY   42  36  78 W22       29.85R
DOUGLAS        LGT RAIN  48  29  47 W29G39    29.81R
SAFFORD        CLOUDY    50  32  50 NW29G36   29.74R
$$

AZZ020-021-025-026-031-212200-
SOUTHWEST ARIZONA

CITY           SKY/WX    TMP DP  RH WIND       PRES   REMARKS
YUMA           SUNNY     63  38  39 NW22G31   29.88S
$$

CAZ031-033-041-043-047-048-061-212200-
SOUTHERN CALIFORNIA

CITY           SKY/WX    TMP DP  RH WIND       PRES   REMARKS
DOWNTOWN L.A.  SUNNY     62  45  53 CALM      29.92S
L.A. AIRPORT   MOSUNNY   59  46  62 W18       29.94S
SAN DIEGO      PTSUNNY   60  45  57 W16       30.01R
BURBANK        SUNNY     58  35  42 W6        29.92S
ONTARIO        PTSUNNY   53  41  63 SE5       29.94S
RIVERSIDE      PTSUNNY   55  41  59 CALM      29.94F
PALM SPRINGS   MOSUNNY   63  35  35 NW13G18   29.88R
EL CENTRO NAS  MOSUNNY   64  40  41 W31G39    29.89R
IMPERIAL       SUNNY     64  42  44 W22G30    29.87R
BLYTHE         SUNNY     62  35  36 SW6       29.85R
NEEDLES        SUNNY     63  29  27 W10       29.80R
$$

NVZ020-UTZ003-212200-
SOUTHERN NEVADA-UTAH

CITY           SKY/WX    TMP DP  RH WIND       PRES   REMARKS
LAS VEGAS      MOSUNNY   56  28  34 N3        29.74R
SALT LAKE CITY CLOUDY    34  32  92 CALM      29.63R
$$

NMZ009-TXZ055-212200-
NEW MEXICO-WEST TEXAS

CITY           SKY/WX    TMP DP  RH WIND       PRES   REMARKS
ALBUQUERQUE    PTSUNNY   43  21  41 NW21G28   29.49R
EL PASO        LGT RAIN  47  32  56 W26G39    29.62S
$$


........................KEY........................
SKY/WX - SKY CONDITION/WEATHER
TMP    - TEMPERATURE IN FAHRENHEIT
DP     - DEW POINT IN FAHRENHEIT
RH     - RELATIVE HUMIDITY IN PERCENT
WIND   - DIRECTION AND SPEED IN MILES PER HOUR (MPH)
VRB    - VARIABLE WIND DIRECTION
PRES   - MEAN SEA LEVEL PRESSURE IN INCHES OF MERCURY
         F - FALLING PRESSURE   R - RISING PRESSURE
         S - STEADY PRESSURE
VSB    - VISIBILITY IN MILES
HX     - HEAT INDEX IN FAHRENHEIT
WCI    - WIND CHILL INDEX IN FAHRENHEIT
TC     - TEMPERATURE IN CELSIUS WHICH IS ALSO KNOWN AS
         TEMPERATURE IN CENTIGRADE
AFB    - AIR FORCE BASE
         LUKE AFB IS LUKE AIR FORCE BASE
         DAVIS-MONTHAN IS DAVIS-MONTHAN AIR FORCE BASE
NAS    - NAVAL AIR STATION
         EL CENTRO NAS IS EL CENTRO NAVAL AIR STATION
N/A    - NOT AVAILABLE





USA.gov is the U.S. government's official web portal to all federal, state and local government web resources and services.